Regional Weather Roundup
Issued by NWS

Home | Current Version | Previous Version | Graphics & Text | Print | Product List | Glossary On
Versions: 1 2 3 4 5 6 7 8 9 10 11 12 13 14 15 16 17 18 19 20 21 22 23 24 25 26 27 28 29 30 31 32 33 34 35 36 37 38 39 40 41 42 43 44 45 46 47 48 49 50
000
ASUS43 KLOT 281606
RWRIL

ILLINOIS REGIONAL WEATHER ROUNDUP
NATIONAL WEATHER SERVICE CHICAGO/ROMEOVILLE IL
1000 AM CST SUN DEC 28 2014

NOTE: "FAIR" INDICATES FEW OR NO CLOUDS BELOW 12,000 FEET WITH NO
SIGNIFICANT WEATHER AND/OR OBSTRUCTIONS TO VISIBILITY.

* THESE STATIONS ARE NOT UNDER NWS QUALITY CONTROL. THEY ALSO MAY NOT
  REPORT WEATHER SUCH AS PRECIPITATION OR FOG.

ILZ001-002-007-009-015-016-024-281700-
NORTHWEST ILLINOIS

CITY           SKY/WX    TMP DP  RH WIND       PRES   REMARKS
MOLINE         SUNNY     24  17  74 W6        30.23R WCI  17
STERLING*      SUNNY     25  18  74 W8        30.22R WCI  16
SAVANNA*       SUNNY     24  17  76 S5        30.22R WCI  18
$$

ILZ003-004-008-010-011-017-018-281700-
NORTH CENTRAL ILLINOIS

CITY           SKY/WX    TMP DP  RH WIND       PRES   REMARKS
ROCKFORD       MOSUNNY   23  16  74 W5        30.21R WCI  17
FREEPORT*      SUNNY     23  18  81 W5        30.21R WCI  17
ROCHELLE*      MOSUNNY   23  19  83 W7        30.22R WCI  14
DE KALB*       MOSUNNY   22  16  80 SW6       30.20R WCI  14
PERU*          PTSUNNY   25  19  80 W8        30.24R WCI  16
$$

ILZ005-006-012>014-019>023-281700-
NORTHEAST ILLINOIS

CITY           SKY/WX    TMP DP  RH WIND       PRES   REMARKS
CHICAGO-OHARE  PTSUNNY   24  16  71 SW7       30.20R WCI  16
CHICAGO-MIDWAY PTSUNNY   28  20  71 W8        30.22R WCI  20
AURORA         MOSUNNY   24  17  74 W6        30.22R WCI  17
LANSING*       CLOUDY    27  21  80 W6        30.22R WCI  20
JOLIET*        PTSUNNY   24  19  81 W3        30.23R
WAUKEGAN       MOSUNNY   24  17  74 SW6       30.17R WCI  17
DUPAGE AIRPORT MOSUNNY   24  16  71 W6        30.20R WCI  17
KANKAKEE*      CLOUDY    26  22  84 W6        30.23R WCI  20
WHEELING       MOSUNNY   24  15  68 SW7       30.21R WCI  16
MORRIS*        PTSUNNY   25  21  85 W6        30.22S WCI  18
ROMEOVILLE*    PTSUNNY   25  21  85 W6        30.21S WCI  18
NORTHERLY ISL    N/A     27  19  72 W8          N/A  WCI  19
$$

LMZ740>746-281700-
SOUTHERN LAKE MICHIGAN

STATION/POSITION SKY/WX   TEMP    WIND        PRES    VSBY  WAVE
                          AIR SEA DIR/SP/G                  HT/PER
                          (F)     (DEG/KT/KT) (MB)    (MI)  (FT/S)
WAUKEGAN HARBOR            23     250/  7/ 12   N/A
HARRISON CRIB              26     250/  8/ 10   N/A
BURNHAM HARBOR             27     250/ 10       N/A
CALUMET HARBOR             27     230/  6/  8 1021.6R
MICHIGAN CITY              29     240/ 11/ 12   N/A
$$

ILZ025>027-034>036-040-047-049-050-058-095>099-281700-
WEST-CENTRAL ILLINOIS

CITY           SKY/WX    TMP DP  RH WIND       PRES   REMARKS
QUINCY         PTSUNNY   27  21  78 W5        30.25R WCI  22
GALESBURG*     MOSUNNY   26  22  86 SW5       30.23S WCI  20
MACOMB*        PTSUNNY   27  23  85 W5        30.26S WCI  21
JACKSONVILLE*  PTSUNNY   31  23  72 NW5       30.25S WCI  27
PITTSFIELD*    CLOUDY    30  24  77 CALM      30.26S
$$

ILZ028>032-037-038-041>044-048-051>054-059>061-281700-
CENTRAL ILLINOIS

CITY           SKY/WX    TMP DP  RH WIND       PRES   REMARKS
PONTIAC        PTSUNNY   25  20  82 W7        30.24R WCI  17
BLOOMINGTON    CLOUDY    25  19  77 NW10      30.23S WCI  15
DECATUR        CLOUDY    28  21  75 NW9       30.24R WCI  19
PEORIA         PTSUNNY   28  19  69 W7        30.25R WCI  21
LACON*         PTSUNNY   25  17  69 W5        30.24R WCI  20
LINCOLN*       CLOUDY    29  22  77 NW5       30.26S WCI  23
SPRINGFIELD    CLOUDY    30  22  72 NW3       30.26R
TAYLORVILLE    CLOUDY    30  23  74 NW5       30.26R WCI  25
$$

ILZ033-039-045-046-055>057-062-063-281700-
EAST-CENTRAL ILLINOIS

CITY           SKY/WX    TMP DP  RH WIND       PRES   REMARKS
CHAMPAIGN      CLOUDY    27  22  81 W13       30.23R WCI  16
DANVILLE*      CLOUDY    26  20  77 NW7       30.19F WCI  19
RANTOUL*       CLOUDY    28  21  76 NW9       30.23R WCI  19
MATTOON        CLOUDY    29  24  82 N10       30.22S WCI  20
PARIS*         CLOUDY    30  26  87 NW7       30.24R WCI  23
$$

ILZ079-100>102-281700-
SOUTHWEST ILLINOIS

CITY           SKY/WX    TMP DP  RH WIND       PRES   REMARKS
ALTON          CLOUDY    32  25  74 W7        30.26S WCI  26
BELLEVILLE     CLOUDY    32  27  82 NW8       30.25R WCI  25
CAHOKIA*       CLOUDY    33  25  72 N7        30.27R WCI  27
SPARTA*        CLOUDY    32  26  78 NW3       30.26R
$$

ILZ064>066-069>071-074>076-080>082-084>086-088>090-092>094-281700-
SOUTH-CENTRAL ILLINOIS

CITY           SKY/WX    TMP DP  RH WIND       PRES   REMARKS
CARBONDALE     CLOUDY    34  27  75 N7        30.24S WCI  28
CAIRO*         CLOUDY    37  31  78 N10       30.23F WCI  30
EFFINGHAM*     CLOUDY    31  23  71 NW8       30.26R WCI  24
MARION         CLOUDY    34  28  80 NW12      30.25R WCI  25
MT. VERNON     CLOUDY    32  23  69 N6        30.25R WCI  26
CENTRALIA*     CLOUDY    32  26  80 N6        30.25R WCI  26
SALEM*         CLOUDY    33  28  83 N6        30.24R WCI  27
METROPOLIS*    CLOUDY    35  34  96 N7        30.23R WCI  29
$$

ILZ067-068-072-073-078-083-087-091-281700-
SOUTHEAST ILLINOIS

CITY           SKY/WX    TMP DP  RH WIND       PRES   REMARKS
LAWRENCEVILLE  CLOUDY    33  27  78 N8        30.24R WCI  26
FLORA*         CLOUDY    32  27  81 NW8       30.24S WCI  25
FAIRFIELD*     CLOUDY    33  28  83 N8        30.24R WCI  25
HARRISBURG*    CLOUDY    33  30  88 N7        30.25F WCI  27
ROBINSON*      CLOUDY    32  28  85 N9        30.24S WCI  24
CARMI*         CLOUDY    35  32  90 N7        30.23S WCI  29
$$

ABBREVIATIONS USED IN REMARKS
   TC - TEMPERATURE IN CELSIUS
  WCI - WIND CHILL INDEX
   HX - HEAT INDEX
  VSB - VISIBILITY
$$



USA.gov is the U.S. government's official web portal to all federal, state and local government web resources and services.